Location: Derby
(52.9213°N, 1.4761°W)
Time: 16:54:51
(UTC+01:00)

A-11 Canister half - Pass Details

Date: 24 May 2025
Orbit: 1524 x 1684 km, 47.3° (Epoch: 14 June)

Event Time Altitude Azimuth Distance (km) Brightness Sun altitude
Rises 00:54:00 0° 284° (WNW) 4,779 11.8 -16.3°
Reaches altitude 10° 00:57:23 10° 276° (W) 3,816 11.2 -16.3°
Maximum altitude 01:05:48 35° 216° (SW) 2,426 9.6 -16.3°
Enters shadow 01:11:29 20° 168° (SSE) 3,171 10.0 -16.3°
